Weather reports worldwide

Advertisment
Alanya, Turkey (17310): temperature & dewpoint: 08.08.2020 10:00:00 - 14.08.2020 10:00:00 (EEST)Alanya, Turkey (17310): wind speed: 08.08.2020 10:00:00 - 14.08.2020 10:00:00 (EEST)Alanya, Turkey (17310): wind direction: 08.08.2020 10:00:00 - 14.08.2020 10:00:00 (EEST)Alanya, Turkey (17310): reduced air pressure: 08.08.2020 10:00:00 - 14.08.2020 10:00:00 (EEST)Alanya, Turkey (17310): visibility: 08.08.2020 10:00:00 - 14.08.2020 10:00:00 (EEST)
Date & Time tt [°C] td [°C] ff [km/h] ff [kn] dd ppp [hPa] vv [km]
14.08.2020 10:00:00 36,8 11,6 5 3 NE 1003,7 20
14.08.2020 09:00:00 35,5 13,0 4 2 ENE 1003,6 20
14.08.2020 08:00:00 28,2 17,5 0 0 N 1003,9 20
14.08.2020 07:00:00 27,9 17,8 2 1 NNE 1004,1 20
14.08.2020 06:00:00 27,6 19,2 0 0 N 1003,0 20
14.08.2020 05:00:00 28,0 20,4 0 0 N 1003,5 20
14.08.2020 04:00:00 28,1 21,2 0 0 N 1003,7 20
14.08.2020 03:00:00 28,8 20,9 2 1 NE 1003,7 20
14.08.2020 02:00:00 29,1 23,2 2 1 N 1004,4 20
14.08.2020 01:00:00 29,2 20,7 2 1 W 1004,3 20
14.08.2020 00:00:00 29,5 23,5 2 1 N 1004,1 20
13.08.2020 23:00:00 29,5 23,1 4 2 NNE 1004,9 20
13.08.2020 22:00:00 29,6 24,1 2 1 NNE 1004,9 20
13.08.2020 21:00:00 30,0 26,0 0 0 N 1005,0 20
13.08.2020 20:00:00 30,4 26,0 2 1 S 1004,2 20
13.08.2020 19:00:00 31,6 26,5 5 3 S 1004,0 20
13.08.2020 18:00:00 32,7 26,1 5 3 SSE 1003,5 20
13.08.2020 17:00:00 32,9 27,3 8 4 SSE 1003,7 20
13.08.2020 16:00:00 33,5 25,9 5 3 E 1004,2 20
13.08.2020 15:00:00 33,7 26,6 5 3 SE 1005,0 20
13.08.2020 14:00:00 33,8 26,9 9 5 SSE 1005,4 20
13.08.2020 13:00:00 32,7 26,6 5 3 SSE 1005,4 20
13.08.2020 12:00:00 32,7 27,1 8 4 SSE 1005,7 20
13.08.2020 11:00:00 33,1 26,0 5 3 E 1005,8 20
13.08.2020 10:00:00 32,0 24,2 5 3 ENE 1005,6 20
13.08.2020 09:00:00 30,3 23,8 5 3 NE 1005,7 20
13.08.2020 08:00:00 29,0 24,0 0 0 N 1004,6 20
13.08.2020 07:00:00 27,5 21,8 0 0 N 1003,8 20
13.08.2020 06:00:00 27,3 21,2 0 0 N 1004,1 20
13.08.2020 05:00:00 27,8 21,4 0 0 N 1004,7 20
13.08.2020 04:00:00 28,2 21,3 0 0 N 1004,5 20
13.08.2020 03:00:00 28,3 21,4 0 0 N 1005,3 20
13.08.2020 02:00:00 29,1 23,8 2 1 NNE 1004,7 20
13.08.2020 01:00:00 28,9 24,1 2 1 SSW 1005,0 20
13.08.2020 00:00:00 29,6 25,2 0 0 N 1005,4 20
12.08.2020 23:00:00 29,7 25,1 0 0 N 1005,9 20
12.08.2020 22:00:00 29,7 23,5 0 0 N 1005,4 20
12.08.2020 21:00:00 30,1 26,1 0 0 N 1005,4 20
12.08.2020 20:00:00 30,4 25,8 2 1 S 1005,3 20
12.08.2020 19:00:00 31,0 25,9 4 2 S 1005,3 20
12.08.2020 18:00:00 32,4 26,6 4 2 S 1005,0 20
12.08.2020 17:00:00 32,9 26,3 5 3 S 1005,0 20
12.08.2020 16:00:00 33,1 26,8 8 4 SSE 1005,7 20
12.08.2020 15:00:00 33,4 26,6 9 5 S 1005,7 20
12.08.2020 14:00:00 33,9 26,5 8 4 SE 1005,9 20
12.08.2020 13:00:00 33,1 26,0 8 4 S 1006,7 20
12.08.2020 12:00:00 33,0 25,7 4 2 SSE 1006,6 20
12.08.2020 11:00:00 32,5 25,7 5 3 SE 1006,5 20
12.08.2020 10:00:00 31,2 25,2 5 3 E 1005,8 20
12.08.2020 09:00:00 30,0 24,7 5 3 E 1006,4 20
12.08.2020 08:00:00 28,8 23,3 4 2 NNE 1005,7 20
12.08.2020 07:00:00 27,7 22,3 2 1 NNE 1005,5 20
12.08.2020 06:00:00 27,7 21,6 2 1 NNE 1004,7 20
12.08.2020 05:00:00 - - - - - - -
12.08.2020 04:00:00 28,5 23,0 0 0 N 1004,3 20
12.08.2020 03:00:00 28,4 21,8 0 0 N 1005,0 20
12.08.2020 02:00:00 28,6 22,0 2 1 NE 1004,9 20
12.08.2020 01:00:00 29,4 23,7 0 0 N 1004,9 20
12.08.2020 00:00:00 29,3 23,3 2 1 W 1005,8 20
11.08.2020 23:00:00 29,8 23,1 0 0 N 1006,1 20
11.08.2020 22:00:00 29,6 22,9 4 2 NNE 1006,4 20
11.08.2020 21:00:00 30,1 23,2 4 2 N 1005,7 20
11.08.2020 20:00:00 30,5 24,3 5 3 SW 1006,0 20
11.08.2020 19:00:00 31,1 23,6 2 1 SSW 1006,6 20
11.08.2020 18:00:00 32,4 22,3 4 2 S 1006,1 20
11.08.2020 17:00:00 32,2 23,8 5 3 S 1006,2 20
11.08.2020 16:00:00 32,4 24,8 5 3 S 1006,6 20
11.08.2020 15:00:00 33,0 25,1 8 4 S 1006,6 20
11.08.2020 14:00:00 32,6 24,8 8 4 S 1007,0 20
11.08.2020 13:00:00 32,0 25,0 8 4 S 1006,5 20
11.08.2020 12:00:00 31,5 25,2 8 4 SSE 1007,1 20
11.08.2020 11:00:00 31,7 24,9 5 3 SSE 1006,7 20
11.08.2020 10:00:00 31,2 24,9 8 4 SSE 1006,4 20
11.08.2020 09:00:00 30,6 24,4 4 2 SSE 1006,0 20
11.08.2020 08:00:00 28,5 22,8 0 0 N 1006,0 20
11.08.2020 07:00:00 27,7 22,5 2 1 N 1006,0 20
11.08.2020 06:00:00 27,7 22,5 0 0 N 1005,3 20
11.08.2020 05:00:00 27,8 22,6 0 0 N 1005,1 20
11.08.2020 04:00:00 28,0 22,8 0 0 N 1005,5 20
11.08.2020 03:00:00 28,1 23,1 2 1 NNE 1005,3 20
11.08.2020 02:00:00 28,3 23,5 2 1 NNE 1005,6 20
11.08.2020 01:00:00 29,3 23,6 4 2 SW 1005,7 20
11.08.2020 00:00:00 28,6 24,0 2 1 SSW 1005,9 20
10.08.2020 23:00:00 28,4 23,2 5 3 NE 1006,5 20
10.08.2020 22:00:00 29,8 24,3 2 1 S 1006,2 20
10.08.2020 21:00:00 30,1 24,6 5 3 WSW 1005,2 20
10.08.2020 20:00:00 30,4 24,9 9 5 WSW 1005,0 20
10.08.2020 19:00:00 30,8 24,3 4 2 SSW 1004,8 20
10.08.2020 18:00:00 32,2 24,4 5 3 S 1004,3 20
10.08.2020 17:00:00 32,6 24,8 8 4 SSE 1004,0 20
10.08.2020 16:00:00 32,8 24,7 8 4 SSE 1003,7 20
10.08.2020 15:00:00 32,6 25,3 8 4 S 1004,1 20
10.08.2020 14:00:00 32,6 25,3 8 4 SSE 1004,7 20
10.08.2020 13:00:00 32,5 24,9 8 4 SSE 1004,1 20
10.08.2020 12:00:00 31,9 25,1 8 4 SSE 1004,4 20
10.08.2020 11:00:00 31,0 25,2 8 4 SSE 1004,2 20
10.08.2020 10:00:00 31,1 23,9 8 4 SSE 1004,0 20
10.08.2020 09:00:00 29,1 23,6 4 2 NNE 1003,7 20
10.08.2020 08:00:00 28,0 23,6 4 2 NE 1003,4 20
10.08.2020 07:00:00 27,8 23,2 2 1 NNE 1003,1 20
10.08.2020 06:00:00 27,7 23,5 2 1 E 1003,3 20
10.08.2020 05:00:00 27,8 23,4 2 1 NNE 1003,0 20
10.08.2020 04:00:00 27,4 23,3 4 2 N 1002,7 20
10.08.2020 03:00:00 27,4 23,5 5 3 NNE 1002,4 20
10.08.2020 02:00:00 27,3 23,6 4 2 NE 1002,3 20
10.08.2020 01:00:00 26,9 23,6 5 3 NE 1003,3 20
10.08.2020 00:00:00 28,7 24,3 4 2 WSW 1003,5 20
09.08.2020 23:00:00 28,7 24,3 8 4 S 1003,7 20
09.08.2020 22:00:00 29,2 23,9 4 2 SSW 1003,4 20
09.08.2020 21:00:00 29,1 24,1 4 2 S 1003,1 20
09.08.2020 20:00:00 29,0 24,2 5 3 S 1002,1 20
09.08.2020 19:00:00 29,3 24,3 9 5 S 1001,3 20
09.08.2020 18:00:00 30,8 25,5 8 4 S 1001,6 20
09.08.2020 17:00:00 32,0 25,2 9 5 SSE 1002,4 20
09.08.2020 16:00:00 33,0 25,4 8 4 SSE 1002,1 20
09.08.2020 15:00:00 32,3 25,0 8 4 ENE 1001,9 20
09.08.2020 14:00:00 33,0 24,3 5 3 ENE 1001,5 20
09.08.2020 13:00:00 32,2 23,8 8 4 NE 1002,0 20
09.08.2020 12:00:00 32,3 23,7 5 3 ESE 1001,8 20
09.08.2020 11:00:00 31,5 24,0 5 3 SE 1002,1 20
09.08.2020 10:00:00 31,0 23,8 9 5 SE 1002,2 20
09.08.2020 09:00:00 29,1 22,9 4 2 ESE 1001,9 20
09.08.2020 08:00:00 29,3 21,1 5 3 ENE 1001,5 20
09.08.2020 07:00:00 28,4 22,3 2 1 E 1001,2 20
09.08.2020 06:00:00 27,7 21,1 4 2 NNE 1001,2 20
09.08.2020 05:00:00 28,0 22,3 4 2 NNE 1000,6 20
09.08.2020 04:00:00 28,4 22,7 5 3 NE 1000,6 20
09.08.2020 03:00:00 28,5 23,0 5 3 NE 1000,2 20
09.08.2020 02:00:00 28,9 23,0 5 3 ENE 1000,5 20
09.08.2020 01:00:00 29,1 23,2 4 2 E 1000,9 20
09.08.2020 00:00:00 29,4 23,4 4 2 SE 1001,4 20
08.08.2020 23:00:00 29,2 23,3 4 2 SE 1001,8 20
08.08.2020 22:00:00 29,4 23,2 2 1 ESE 1002,1 20
08.08.2020 21:00:00 29,4 23,4 4 2 ESE 1002,4 20
08.08.2020 20:00:00 29,6 24,5 5 3 SSE 1001,9 20
08.08.2020 19:00:00 30,5 24,7 4 2 ESE 1002,3 20
08.08.2020 18:00:00 31,2 23,4 8 4 E 1001,9 20
08.08.2020 17:00:00 30,6 23,9 8 4 E 1002,2 20
08.08.2020 16:00:00 31,0 24,5 9 5 SSE 1003,2 20
08.08.2020 15:00:00 32,4 25,6 8 4 ESE 1002,8 20
08.08.2020 14:00:00 32,5 23,8 8 4 SE 1003,6 20
08.08.2020 13:00:00 32,2 24,1 9 5 E 1003,8 20
08.08.2020 12:00:00 32,0 24,2 8 4 E 1003,5 20
08.08.2020 11:00:00 31,5 24,0 5 3 SE 1004,0 20
08.08.2020 10:00:00 31,3 24,3 5 3 ESE 1003,8 20

tt = temperature
td = dewpoint
ff = wind speed
dd = wind direction
ppp = reduced air pressure
vv = visibility

Next stations